{"data":{"norad_id":67510,"intl_designator":"2026-012T","name":"STARLINK-36549","alt_names":[],"object_type":"PAYLOAD","status":"ACTIVE","operator":null,"country":"US","launch_date":"2026-01-18","launch_site_code":"AFETR","launch_vehicle":null,"mission":null,"orbit_class":"UNKNOWN","rcs_meters":null,"size_class":null,"mass_kg":null,"dimensions":null,"purposes":["comms"],"wikipedia_slug":null,"has_3d_model":false,"image_url":null,"decayed_at":null,"tle_current":{"epoch":"2026-05-24T15:33:15.768288Z","epoch_age_seconds":108726,"freshness":"FRESH","line1":"1 67510U 26012T   26144.64809917  .00004657  00000+0  17863-3 0  9990","line2":"2 67510  42.9999 244.9777 0001202 265.2266  94.8448 15.27582027 19384","mean_motion":15.27582027,"eccentricity":0.0001202,"inclination_deg":42.9999,"raan_deg":244.9777,"arg_perigee_deg":265.2266,"mean_anomaly_deg":94.8448,"bstar":0.00017863,"rev_number":1938,"period_min":94.26662362793,"perigee_km":482.21831263997,"apogee_km":483.86774031834,"semimajor_km":6861.1800264792,"source":"CELESTRAK","updated_at":"2026-05-25T13:38:21.599424Z"}}}